Location: *
(2.5500°S, 65.9667°W)
Time: 11:23:52
(UTC+00:00)

DELTA-4 R/B - Pass Details

Date: 26 October 2021
Orbit: 506 x 34451 km, 13.9° (Epoch: 28 November)

Event Time Altitude Azimuth Distance (km) Brightness Sun altitude
Rises 14:25:47 0° 281° (WNW) 13,498 9.1 62.8°
Reaches altitude 10° 14:35:09 10° 280° (W) 14,781 9.4 64.9°
Drops below altitude 10° 20:40:55 10° 260° (W) 35,408 13.6 21.7°
Maximum altitude 23:46:14 83° 169° (SSE) 1,596 4.5 -23.3°
Enters shadow 23:48:36 44° 84° (E) 1,588 4.1 -23.9°
